"Pseudo-MPEC" for VWP0098

Created 2023 Sep 27 2:22:20 UT using Find_Orb

Click here for an explanation of pseudo-MPECs

 
 Astrometry: 
     VWP0098*KC2023 09 074y=?T]DS)^kGO1Astrometryn*Ru5Vj0Zi'1qWq.FJeredacted;U93
     VWP0098 KC2023 09 07Xccclick1F!m+h;5t7$*[heWFe(#6k#`qhZ,)-`N8(i'Z_apNLp+U93
     VWP0098 KC2023 09 07L[hereh)rY-2POfor+d[hDCNL5V=3PtFexplanationPp6L,XUX7U93

Station data:
(U93) Skygems Dreamscope Utah, Beryl Junction  (N37.762808 W113.712390)
   US/Utah.

Orbital elements:  VWP0098
   Perihelion 2023 Aug 12.71432 +/- 39.6 TT = 17:08:37 (JD 2460169.21432)
Epoch 2023 Sep  7.0 TT = JDT 2460194.5   Earth MOID: 0.1893   Ma: 0.0255
M  11.45584052 +/- 26               (J2000 ecliptic)             AutoNEOCP
n   0.45305646 +/- 0.36             Peri.  131.60199 +/- 70
a   1.67893737 +/- 0.889            Node   186.44540 +/- 60
e   0.2876816 +/- 0.254             Incl.    3.54616 +/- 3.9
P   2.18/794.59d           H 22.76  G  0.15   U 12.1  SR
q 1.19593782 +/- 0.389    Q 2.16193693 +/- 46.1
From 3 observations 2023 Sept. 7 (32.5 min); mean residual 0".28
Residuals in arcseconds: 
230907 U93  .05+  .28+    230907 U93  .11-  .55-    230907 U93  .05+  .27+    

Ephemerides (geocentric):
Date (UTC) HH   RA             Dec           delta  r     elong  mag " sig PA
---- --------  ------------   ------------  ------ ------ -----  --- --------
2023 09 27 02  21 57 25.938   -09 26 05.99  .29404 1.2540 144.7 21.8  41d  92
2023 09 27 03  21 57 31.142   -09 26 15.98  .29422 1.2541 144.7 21.8  41d  92
2023 09 27 04  21 57 36.346   -09 26 25.92  .29441 1.2542 144.6 21.8  41d  92
2023 09 27 05  21 57 41.550   -09 26 35.81  .29459 1.2543 144.6 21.8  41d  92
2023 09 27 06  21 57 46.755   -09 26 45.66  .29477 1.2544 144.6 21.8  41d  92
2023 09 27 07  21 57 51.959   -09 26 55.47  .29496 1.2545 144.6 21.8  42d  92
2023 09 27 08  21 57 57.164   -09 27 05.23  .29514 1.2546 144.6 21.8  42d  92
2023 09 27 09  21 58 02.369   -09 27 14.94  .29533 1.2547 144.5 21.8  42d  92
2023 09 27 10  21 58 07.574   -09 27 24.61  .29551 1.2548 144.5 21.8  42d  92
2023 09 27 11  21 58 12.779   -09 27 34.23  .29570 1.2549 144.5 21.8  42d  92
2023 09 27 12  21 58 17.985   -09 27 43.81  .29588 1.2550 144.5 21.8  42d  92
2023 09 27 13  21 58 23.190   -09 27 53.34  .29607 1.2552 144.5 21.8  42d  92
2023 09 27 14  21 58 28.396   -09 28 02.83  .29625 1.2553 144.4 21.8  42d  92
2023 09 27 15  21 58 33.602   -09 28 12.27  .29644 1.2554 144.4 21.8  42d  92
2023 09 27 16  21 58 38.807   -09 28 21.66  .29662 1.2555 144.4 21.8  42d  92
2023 09 27 17  21 58 44.013   -09 28 31.01  .29681 1.2556 144.4 21.8  42d  92
2023 09 27 18  21 58 49.219   -09 28 40.32  .29700 1.2557 144.4 21.8  42d  92
2023 09 27 19  21 58 54.426   -09 28 49.58  .29718 1.2558 144.3 21.9  42d  92
2023 09 27 20  21 58 59.632   -09 28 58.80  .29737 1.2559 144.3 21.9  42d  92
2023 09 27 21  21 59 04.838   -09 29 07.97  .29756 1.2560 144.3 21.9  42d  92
2023 09 27 22  21 59 10.045   -09 29 17.09  .29774 1.2561 144.3 21.9  42d  92
2023 09 27 23  21 59 15.251   -09 29 26.17  .29793 1.2562 144.3 21.9  42d  92
2023 09 28 00  21 59 20.458   -09 29 35.21  .29812 1.2563 144.2 21.9  42d  92
2023 09 28 01  21 59 25.665   -09 29 44.20  .29830 1.2564 144.2 21.9  42d  92
2023 09 28 02  21 59 30.872   -09 29 53.14  .29849 1.2565 144.2 21.9  42d  92
2023 09 28 03  21 59 36.079   -09 30 02.04  .29868 1.2566 144.2 21.9  42d  92
2023 09 28 04  21 59 41.286   -09 30 10.90  .29887 1.2567 144.1 21.9  42d  92
2023 09 28 05  21 59 46.493   -09 30 19.71  .29905 1.2568 144.1 21.9  42d  92
2023 09 28 06  21 59 51.700   -09 30 28.48  .29924 1.2569 144.1 21.9  42d  92
2023 09 28 07  21 59 56.907   -09 30 37.20  .29943 1.2570 144.1 21.9  42d  92
2023 09 28 08  22 00 02.115   -09 30 45.87  .29962 1.2571 144.1 21.9  42d  92
2023 09 28 09  22 00 07.322   -09 30 54.50  .29981 1.2572 144.0 21.9  42d  92
2023 09 28 10  22 00 12.530   -09 31 03.09  .30000 1.2573 144.0 21.9  42d  92
2023 09 28 11  22 00 17.737   -09 31 11.63  .30018 1.2574 144.0 21.9  42d  92
2023 09 28 12  22 00 22.945   -09 31 20.13  .30037 1.2575 144.0 21.9  42d  92
2023 09 28 13  22 00 28.152   -09 31 28.58  .30056 1.2576 144.0 21.9  42d  92
2023 09 28 14  22 00 33.360   -09 31 36.99  .30075 1.2577 143.9 21.9  42d  92
2023 09 28 15  22 00 38.568   -09 31 45.35  .30094 1.2578 143.9 21.9  42d  92
2023 09 28 16  22 00 43.776   -09 31 53.67  .30113 1.2579 143.9 21.9  42d  92
2023 09 28 17  22 00 48.984   -09 32 01.94  .30132 1.2580 143.9 21.9  42d  92
2023 09 28 18  22 00 54.192   -09 32 10.17  .30151 1.2581 143.9 21.9  42d  92
2023 09 28 19  22 00 59.399   -09 32 18.35  .30170 1.2582 143.8 21.9  42d  92
2023 09 28 20  22 01 04.607   -09 32 26.49  .30189 1.2584 143.8 21.9  42d  92
2023 09 28 21  22 01 09.816   -09 32 34.58  .30208 1.2585 143.8 21.9  42d  92
2023 09 28 22  22 01 15.024   -09 32 42.63  .30227 1.2586 143.8 21.9  42d  92
2023 09 28 23  22 01 20.232   -09 32 50.64  .30246 1.2587 143.7 21.9  42d  92
2023 09 29 00  22 01 25.440   -09 32 58.60  .30265 1.2588 143.7 21.9  42d  92
2023 09 29 01  22 01 30.648   -09 33 06.52  .30285 1.2589 143.7 21.9  42d  92